This is the latest recevied weather packets stored in our database for station/object KR4DFQ. If no packets are shown the sender has not sent any weather packets the latest 10 day(s).
| Time | Temp. | Humidity | Pressure | Rain* | Wind** | Luminosity | Snow |
|---|---|---|---|---|---|---|---|
| 1787749918 | 31.11° C | 66% | 1017.7 hPa | 0 mm | - | 375 W/m² | - |
| 1787749614 | 31.67° C | 64% | 1017.4 hPa | 0 mm | - | 242 W/m² | - |
| 1787749310 | 31.67° C | 64% | 1017.4 hPa | 0 mm | - | 346 W/m² | - |
| 1787749004 | 31.67° C | 64% | 1017.5 hPa | 0 mm | - | 319 W/m² | - |
| 1787748698 | 31.67° C | 64% | 1017.5 hPa | 0 mm | - | 273 W/m² | - |
| 1787748393 | 31.11° C | 66% | 1017.5 hPa | 0 mm | - | 269 W/m² | - |
| 1787748090 | 31.11° C | 67% | 1017.4 hPa | 0 mm | - | 250 W/m² | - |
| 1787747790 | 31.11° C | 68% | 1017.4 hPa | 0 mm | - | 238 W/m² | - |
| 1787747485 | 30.56° C | 70% | 1017.4 hPa | 0 mm | - | 228 W/m² | - |
| 1787747185 | 30.56° C | 71% | 1017.6 hPa | 0 mm | - | 202 W/m² | - |
| 1787746882 | 30° C | 72% | 1017.6 hPa | 0 mm | - | 177 W/m² | - |
| 1787746581 | 30° C | 73% | 1017.5 hPa | 0 mm | - | 160 W/m² | - |
| 1787746281 | 30° C | 73% | 1017.4 hPa | 0 mm | - | 144 W/m² | - |
| 1787745980 | 29.44° C | 73% | 1017.6 hPa | 0 mm | - | 129 W/m² | - |
| 1787745675 | 28.89° C | 75% | 1017.2 hPa | 0 mm | - | 113 W/m² | - |
| 1787745368 | 28.89° C | 76% | 1017.4 hPa | 0 mm | - | 97 W/m² | - |
| 1787745067 | 28.33° C | 76% | 1017.1 hPa | 0 mm | - | 82 W/m² | - |
| 1787744764 | 28.33° C | 77% | 1017.2 hPa | 0 mm | - | 68 W/m² | - |
| 1787744460 | 27.78° C | 78% | 1017.2 hPa | 0 mm | - | 49 W/m² | - |
| 1787744155 | 27.78° C | 77% | 1017 hPa | 0 mm | - | 33 W/m² | - |
| 1787743851 | 27.78° C | 78% | 1016.9 hPa | 0 mm | - | 27 W/m² | - |
| 1787743550 | 27.78° C | 78% | 1017 hPa | 0 mm | - | 24 W/m² | - |
| 1787743246 | 27.78° C | 78% | 1016.7 hPa | 0 mm | - | 20 W/m² | - |
| 1787742942 | 27.78° C | 77% | 1016.8 hPa | 0 mm | - | 16 W/m² | - |
| 1787742637 | 27.78° C | 77% | 1016.6 hPa | 0 mm | - | 12 W/m² | - |
* Rain latest hour (hover to see other rain measurements)
** Current wind speed in m/s (hover to see current wind gust speed)